Hourly Data Report for May 25, 2012

All times are specified in Local Standard Time (LST). Add 1 hour to adjust for Daylight Saving Time where and when it is observed.

THUNDER BAY
ONTARIO

48°22'19.000" N
89°19'18.000" W
199.30 m
6048260
71072
YQT

Download Data

Hourly Data (May 2012)
Hourly Data Report for May 25, 2012
Temp Definition
°C
Dew Point Temp Definition
°C
Rel Hum Definition
%
Wind Dir Definition
10's deg

Wind Spd Definition
km/h
Visibility Definition
km
Stn Press Definition
kPa
Hmdx Definition


Wind Chill Definition


Weather Definition


TIME
00:00 Legend Double Dagger 12.7 12.4 98 18 4 4.0 97.07     LegendNANA
01:00 Legend Double Dagger 13.7 12.7 93 25 21 16.1 97.14     LegendNANA
02:00 Legend Double Dagger 12.7 11.5 92 27 18 16.1 97.24     LegendNANA
03:00 Legend Double Dagger 12.1 10.7 91 25 15 16.1 97.36     LegendNANA
04:00 Legend Double Dagger 12.1 10.5 90 26 18 16.1 97.47     LegendNANA
05:00 Legend Double Dagger 12.5 10.8 89 25 21 16.1 97.56     LegendNANA
06:00 Legend Double Dagger 13.4 10.6 83 27 28 16.1 97.70     LegendNANA
07:00 Legend Double Dagger 14.2 11.3 83 27 26 16.1 97.87     LegendNANA
08:00 Legend Double Dagger 15.9 11.8 76 26 28 16.1 97.99     LegendNANA
09:00 Legend Double Dagger 14.2 10.2 77 26 30 16.1 98.13     LegendNANA
10:00 Legend Double Dagger 14.1 9.6 74 26 33 16.1 98.29     LegendNANA
11:00 Legend Double Dagger 15.4 9.6 68 28 26 16.1 98.45     LegendNANA
12:00 Legend Double Dagger 15.4 9.3 67 28 22 16.1 98.59     LegendNANA
13:00 Legend Double Dagger 15.4 9.4 67 29 24 16.1 98.71     LegendNANA
14:00 Legend Double Dagger 15.8 9.1 64 26 30 16.1 98.85     LegendNANA
15:00 Legend Double Dagger 17.9 8.2 53 30 30 16.1 98.88     LegendNANA
16:00 Legend Double Dagger 18.6 5.6 42 29 30 16.1 98.95     LegendNANA
17:00 Legend Double Dagger 17.9 5.0 42 30 22 16.1 99.02     LegendNANA
18:00 Legend Double Dagger 18.6 4.2 38 29 21 16.1 99.12     LegendNANA
19:00 Legend Double Dagger 17.2 5.2 45 31 13 16.1 99.17     LegendNANA
20:00 Legend Double Dagger 15.6 6.7 55 32 4 16.1 99.21     LegendNANA
21:00 Legend Double Dagger 14.6 7.0 60 30 8 16.1 99.35     LegendNANA
22:00 Legend Double Dagger 13.3 7.6 68 29 4 16.1 99.47     LegendNANA
23:00 Legend Double Dagger 10.9 9.2 89 8 11 16.1 99.58     LegendNANA

Notes on Data Quality.

Legend

  • E = Estimated
  • M = Missing
  • NA = Not Available
  • ‡ = Partner data that is not subject to review by the National Climate Archives
Date modified: